sat.trackr.live / text

‹ back to catalog

STARLINK-6217

NORAD 57058 · 2023-088L

PAYLOAD ACTIVE UNKNOWN

§ Identity

Operator
Country
US
Launch date
2023-06-22
Launch site
AFWTR
Launch vehicle
Mass (kg)
RCS (m²)

Purposes: comms

External: N2YO · Heavens-Above · Gunter

§ Orbital elements

Epoch: 2026-09-20T21:56:09.171456Z

Period
94.27 min
Inclination
43.0041°
Eccentricity
0.0001852
Mean motion
15.27578288 rev/d
Perigee alt
481.8 km
Apogee alt
484.3 km
Semi-major
6,861.2 km
B*
2.2961e-5
RAAN
87.7816°
Arg perigee
268.5261°
Mean anomaly
91.5378°
Rev number
18,019

§ Raw data

STARLINK-62171 57058U 23088L   26263.91399504  .00000369  00000+0  22961-4 0  99962 57058  43.0041  87.7816 0001852 268.5261  91.5378 15.27578288180197

JSON: /api/v1/satellites/57058 · /tle

For live sub-satellite position, see the globe view (requires WebGL).

§ Visibility from observer

Set your observer location to see the next 7 days of passes ≥ 10°. The values pass through the URL so the page stays shareable.

No JS? Fill the form by hand. The geolocation button needs JavaScript.